This is the latest recevied weather packets stored in our database for station/object BM2MWA-13. If no packets are shown the sender has not sent any weather packets the latest 10 day(s).
| Time | Temp. | Humidity | Pressure | Rain* | Wind** | Luminosity | Snow |
|---|---|---|---|---|---|---|---|
| 1778180223 | 23.89° C | 87% | 1008.2 hPa | 0 mm | - | - | - |
| 1778179623 | 23.89° C | 86% | 1008.1 hPa | 0 mm | - | - | - |
| 1778179023 | 23.89° C | 86% | 1008.2 hPa | 0 mm | - | - | - |
| 1778178423 | 23.89° C | 84% | 1008.1 hPa | 0 mm | - | - | - |
| 1778177823 | 23.89° C | 85% | 1008.2 hPa | 0 mm | - | - | - |
| 1778177223 | 23.89° C | 88% | 1008 hPa | 0 mm | - | - | - |
| 1778176624 | 23.89° C | 87% | 1008 hPa | 0 mm | - | - | - |
| 1778176024 | 24.44° C | 87% | 1007.9 hPa | 0 mm | - | - | - |
| 1778175423 | 24.44° C | 86% | 1007.9 hPa | 0 mm | - | - | - |
| 1778174824 | 24.44° C | 87% | 1007.9 hPa | 0 mm | - | - | - |
| 1778174225 | 24.44° C | 86% | 1007.9 hPa | 0 mm | - | - | - |
| 1778173625 | 24.44° C | 86% | 1008 hPa | 0 mm | - | - | - |
| 1778173023 | 24.44° C | 84% | 1008.1 hPa | 0 mm | - | - | - |
| 1778172424 | 25° C | 85% | 1008.2 hPa | 0 mm | - | - | - |
| 1778171824 | 25° C | 84% | 1008.3 hPa | 0 mm | - | - | - |
| 1778171224 | 25° C | 84% | 1008.3 hPa | 0 mm | - | - | - |
| 1778170623 | 25° C | 84% | 1008.5 hPa | 0 mm | - | - | - |
| 1778170023 | 25° C | 85% | 1008.6 hPa | 0 mm | - | - | - |
| 1778169423 | 25° C | 85% | 1008.6 hPa | 0 mm | - | - | - |
| 1778168823 | 25° C | 84% | 1008.8 hPa | 0 mm | - | - | - |
| 1778168223 | 25° C | 85% | 1008.8 hPa | 0 mm | - | - | - |
| 1778167624 | 25° C | 86% | 1008.8 hPa | 0 mm | - | - | - |
| 1778167023 | 25.56° C | 83% | 1008.9 hPa | 0 mm | - | - | - |
| 1778166424 | 25.56° C | 83% | 1009 hPa | 0 mm | - | - | - |
| 1778165825 | 25.56° C | 82% | 1009 hPa | 0 mm | - | - | - |
* Rain latest hour (hover to see other rain measurements)
** Current wind speed in m/s (hover to see current wind gust speed)